Weather in Pinega

Russia / Arkhangel'skaya Oblast'     64°41′51″N   43°23′30″E
temp.,
°C
wind,
m/s
gust,
m/s
humid.,
%
clouds,
%
prec.,
mm/h
press.,
hPa
HPBL,
m
23 april, fri
fri2300:00+3sw498794 0.1 1009632
03:00+2sw51087100 0.1 1011670
06:00+3sw498583 0.0 1013562
09:00+6sw366644 0.0 1014923
12:00+9ssw355248 0.0 10151295
15:00+12s354945 0.0 10151416
18:00+12ese365367 0.0 1015353
21:00+10ese41167100 0.0 1015446
24 april, sat
sat2400:00+9se4128099 0.1 1014519
03:00+8se41185100 0.2 1014370
06:00+8sse41183100 0.0 1015475
09:00+11sse4868100 0.0 1015655
12:00+15sse695295 0.1 10141804
15:00+14sse595064 0.6 10131807
18:00+14se695066 0.1 10131198
21:00+9se411625 0.1 1013377
25 april, sun
sun2500:00+7se312695 0.0 1013403
03:00+6ese4117594 0.0 1012472
06:00+6e41173100 0.0 1011476
09:00+9ese51060100 0.0 10101138
12:00+11ese5849100 0.0 10081871
15:00+10e4860100 0.1 10081373
18:00+9e4863100 0.3 10071178
21:00+7ese3875100 0.3 1007668
26 april, mon
mon2600:00+6ne278690 0.1 1006215
03:00+5ne2686100 0.1 1005220
06:00+6ene3685100 0.1 1004661
09:00+6ene3581100 0.2 1003733
12:00+6ene3482100 0.2 1003789
15:00+7ene2475100 0.6 1003904
18:00+7e2374100 0.3 1002879
21:00+5e1287100 0.7 100257
27 april, tue
tue2700:00+5ene1294100 0.4 1002103
03:00+4nne1295100 0.8 1001129
06:00+4ne2396100 0.6 1001582
09:00+4nne1296100 1.1 1001580
12:00+4n2294100 0.5 1001702
15:00+4n2296100 1.1 1002697
18:00+3n3597100 1.1 1002540
21:00+1n4997100 2.6 1003404